Flag for Spain Weather past 2 weeks in Torrevieja, Spain

Now
50 °F

Passing clouds.


Feels Like: 48 °F
Forecast: 45 / 63 °F
Wind: 6 mph from North

Location: Murcia / San Javier

Current Time: Dec 23, 2014 at 12:34:42 AM

Latest Report: Dec 22, 2014 at 10:00 PM


Visibility: N/A

Pressure: 30.45 "Hg

Humidity: 94%

Dew point: 48 °F

Location of TorreviejaLocation

Historic Weather in Torrevieja — Graph

°F

Torrevieja temperature yesterday

Maximum temperature yesterday: 63 °F (at 2:00 PM)
Minimum temperature yesterday: 50 °F (at 8:00 AM)
Average temperature yesterday: 57 °F

Past Weeks' High & Low Weather Summary

 TemperatureHumidityPressure
High66 °F (Dec 11, 1:00 PM)100% (Dec 14, 5:00 PM)30.51 "Hg (Dec 14, 5:00 PM)
Low41 °F (Dec 12, 7:00 AM)20% (Dec 10, 3:00 PM)29.86 "Hg (Dec 14, 7:00 AM)
Average56 °F72%30.23 "Hg
* Reported Dec 7 10:00 PM — Dec 22 10:00 PM, Torrevieja, Weather by CustomWeather, © 2014

Note: Actual official high and low records may vary slightly from our data, if they occured in-between our weather recording intervals... More about our weather records

Advertising

Torrevieja weather history for previous 24 hours

 ConditionsComfort  
Time TempWeatherWind HumidityBarometerVisibility
10:00 PM
Dec 22
50 °FPassing clouds.6 mph94%30.45 "HgN/A
9:00 PM52 °FPassing clouds.3 mph88%30.45 "HgN/A
8:00 PM54 °FPassing clouds.3 mph88%30.45 "HgN/A
7:00 PM55 °FPassing clouds.5 mph82%30.45 "HgN/A
6:00 PM57 °FPassing clouds.3 mph82%30.45 "HgN/A
5:00 PM59 °FScattered clouds.7 mph77%30.45 "HgN/A
4:00 PM61 °FScattered clouds.9 mph68%30.45 "HgN/A
3:00 PM63 °FPassing clouds.9 mph68%30.45 "HgN/A
2:00 PM63 °FPassing clouds.9 mph68%30.45 "HgN/A
1:00 PM61 °FPartly sunny.9 mph72%30.48 "HgN/A
12:00 PM61 °FScattered clouds.9 mph72%30.51 "HgN/A
11:00 AM61 °FPassing clouds.8 mph72%30.51 "Hg6 mi
10:00 AM55 °FFog.6 mph88%30.51 "Hg6 mi
9:00 AM52 °FPartly sunny.8 mph94%30.48 "Hg5 mi
8:00 AM50 °FPassing clouds.5 mph94%30.48 "Hg4 mi
7:00 AM52 °FPassing clouds.5 mph94%30.48 "Hg4 mi
Weather by CustomWeather, © 2014

See weather overviewHow to use our weather pages